User: anonymous   Login
Location: Unspecified
(43.4354°N, 0.0000°E)
Time: 18:30:49
(UTC+00:00)
Language:

LO-87 - Orbit

View from above orbital plane
View from above orbital plane
View from above satellite
View from above satellite

Ground track
Ground track

The orbit data is extracted from the following two-line orbital elements,

1 41557U 16033B   19232.22174873  .00000761  00000-0  31141-4 0  9994
2 41557  97.4173 319.3599 0015463  78.8963 281.4014 15.27310478179638
Epoch (UTC): 20 August 2019 05:19:19
Eccentricity: 0.0015463
inclination: 97.4173°
perigee height: 473 km
apogee height: 494 km
right ascension of ascending node: 319.3599°
argument of perigee: 78.8963°
revolutions per day: 15.27310478
mean anomaly at epoch: 281.4014°
orbit number at epoch: 17963

The dashed part of the orbit path shows where the satellite is in the earth's shadow,  

DLR